Hourly Data Report for October 22, 2015

All times are specified in Local Standard Time (LST). Add 1 hour to adjust for Daylight Saving Time where and when it is observed.

GJOA HAVEN A
NUNAVUT

68°38'08.000" N
95°51'01.000" W
46.90 m
2302337
71597
YHK

Download Data

Hourly Data (October 2015)
Hourly Data Report for October 22, 2015
Temp Definition
°C
Dew Point Temp Definition
°C
Rel Hum Definition
%
Wind Dir Definition
10's deg

Wind Spd Definition
km/h
Visibility Definition
km
Stn Press Definition
kPa
Hmdx Definition


Wind Chill Definition


Weather Definition


TIME
00:00 Legend Double Dagger -10.2 -11.4 91 26 18 16.1 101.56   -18 Snow
01:00 Legend Double Dagger -9.9 -11.5 88 23 26 16.1 101.55   -19 Snow
02:00 Legend Double Dagger -10.4 -12.0 89 23 24 16.1 101.52   -19 Snow
03:00 Legend Double Dagger -11.3 -12.7 89 24 24 16.1 101.48   -20 Snow
04:00 Legend Double Dagger -12.0 -13.5 89 24 26 16.1 101.43   -22 Snow
05:00 Legend Double Dagger -12.5 -13.7 91 26 18 16.1 101.39   -21 Snow
06:00 Legend Double Dagger -12.7 -13.9 91 25 18 16.1 101.33   -21 Snow
07:00 Legend Double Dagger -12.2 -13.5 90 24 17 16.1 101.27   -20 Snow
08:00 Legend Double Dagger -12.4 -13.7 90 24 18 11.3 101.22   -20 Snow
09:00 Legend Double Dagger -12.5 -13.8 90 22 24 14.5 101.15   -22 Snow
10:00 Legend Double Dagger -13.1 -14.6 89 22 21 6.4 101.11   -22 Snow
11:00 Legend Double Dagger -14.7 -16.0 90 21 21 4.8 101.04   -24 Snow
12:00 Legend Double Dagger -14.2 -15.4 91 22 18 4.0 100.95   -23 Snow
13:00 Legend Double Dagger -14.0 -15.3 90 20 15 4.8 100.88   -22 Snow
14:00 Legend Double Dagger -13.6 -14.9 90 21 13 16.1 100.81   -21 Snow
15:00 Legend Double Dagger -13.8 -15.0 91 19 9 16.1 100.71   -19 Snow
16:00 Legend Double Dagger -13.1 -14.3 91 18 8 16.1 100.64   -18 Snow
17:00 Legend Double Dagger -12.6 -13.9 90 18 8 16.1 100.57   -18 Snow
18:00 Legend Double Dagger -12.2 -13.4 91 16 8 16.1 100.51   -17 Snow
19:00 Legend Double Dagger -11.8 -12.9 92 17 8 16.1 100.44   -17 Snow
20:00 Legend Double Dagger -11.5 -12.7 91 LegendMM 4 16.1 100.38   -14 LegendNANA
21:00 Legend Double Dagger -11.2 -12.5 90 9 9 16.1 100.30   -16 LegendNANA
22:00 Legend Double Dagger -11.2 -12.5 90 4 8 16.1 100.24   -16 Snow
23:00 Legend Double Dagger -11.3 -12.4 92 5 15 16.1 100.17   -18 LegendNANA

Notes on Data Quality.

Legend

  • E = Estimated
  • M = Missing
  • NA = Not Available
  • ‡ = Partner data that is not subject to review by the National Climate Archives
Date modified: